User: anonymous   Login
Location: Mount Graham
(32.7016°N, 109.8912°W)
Time: 12:49:13
(UTC-07:00)
Language:

Cosmos 1340 - Orbit

View from above orbital plane
View from above orbital plane
View from above satellite
View from above satellite

Ground track
Ground track

The orbit data is extracted from the following two-line orbital elements,

1 13067U 82013A   16336.70255435  .00001034  00000-0  48259-4 0  9991
2 13067  81.1866   4.5193 0004608 110.8614  30.2996 15.18974798897833
Epoch (UTC): 01 December 2016 16:51:40
Eccentricity: 0.0004608
inclination: 81.1866°
perigee height: 506 km
apogee height: 512 km
right ascension of ascending node: 4.5193°
argument of perigee: 110.8614°
revolutions per day: 15.18974798
mean anomaly at epoch: 30.2996°
orbit number at epoch: 89783

The dashed part of the orbit path shows where the satellite is in the earth's shadow,  

DLR